sat.trackr.live / text

‹ back to catalog

STARLINK-33899

NORAD 63799 · 2025-091AA

PAYLOAD ACTIVE UNKNOWN

§ Identity

Operator
Country
US
Launch date
2025-05-02
Launch site
AFETR
Launch vehicle
Mass (kg)
RCS (m²)

Purposes: comms

External: N2YO · Heavens-Above · Gunter

§ Orbital elements

Epoch: 2026-05-24T22:25:53.478336Z

Period
94.27 min
Inclination
43.0031°
Eccentricity
0.0001736
Mean motion
15.27594033 rev/d
Perigee alt
481.8 km
Apogee alt
484.2 km
Semi-major
6,861.1 km
B*
4.1442e-4
RAAN
341.8661°
Arg perigee
273.1471°
Mean anomaly
86.9182°
Rev number
6,067

§ Raw data

STARLINK-338991 63799U 25091AA  26144.93464674  .00011164  00000+0  41442-3 0  99912 63799  43.0031 341.8661 0001736 273.1471  86.9182 15.27594033 60670

JSON: /api/v1/satellites/63799 · /tle

For live sub-satellite position, see the globe view (requires WebGL).

§ Visibility from observer

Set your observer location to see the next 7 days of passes ≥ 10°. The values pass through the URL so the page stays shareable.

No JS? Fill the form by hand. The geolocation button needs JavaScript.